FENGYUN 1C DEB

Satellite information

Favourite Embed

Satellite Type and Status

DEBRISIN ORBIT

Key statistics

Satellite FENGYUN 1C DEB at a glance.

Uptime

9715

Days in orbit

Revolutions

≈ 14.2

Per day

Orbit

SSO

Sun Synchronous Orbit

Inclination

98.5

Latest

Satellite identification and parameters

Extended collection of information and parameters for FENGYUN 1C DEB.

Object identification

Identified? True

Debris? True

Object name: FENGYUN 1C DEB

International designator: 1999-025ASN

Object number (NORAD): 30728

Object ID (CCSDS): 30728

Country: PEOPLES REPUBLIC OF CHINA (PRC)

Current information (Y/N): Y

RCS size: SMALL

Orbital parameters

Period: 101.161 minutes

Inclination: 98.5295 deg

SMA: 7191.766 km

Apoapsis: 885.225 km

Periapsis: 742.037 km

RAAN: 352.6722 deg

Eccentricy: 0.009955

Argument of periapsis: 84.2275 deg

Mean anomaly: 277.0243 deg

Mean motion: 14.23473745 rev/day

Mean motion (dot): 0.00000234 rev/day2

B* drag term: 0.0001154 1/REarth

Two-line elements (TLE)

Creation date: Dec. 12, 2025, 7:26 a.m.

Reference frame: TEME

Reference center: EARTH

Epoch: Dec. 11, 2025, 11:07 p.m. UTC

TLE line 0: 0 FENGYUN 1C DEB

TLE line 1: 1 30728U 99025ASN 25345.96350348 .00000234 00000-0 11540-3 0 9995

TLE line 2: 2 30728 98.5295 352.6722 0099550 84.2275 277.0243 14.23473745976785

Live tracking on map

Real-time ground track for satellite FENGYUN 1C DEB.

In-orbit conjunctions

A list of the most updated potential collisions computed for object FENGYUN 1C DEB.

Target Orbit TCA Probability of collision Miss distance Type
FENGYUN 1C DEB SSO 2025-11-15 20:00:34 0.0001833687 76.0 (m) DEBRIS
CZ-6A DEB LEO 2025-03-02 21:18:22 0.0002431015 858.0 (m) DEBRIS

Associated space launch

Chinese polar orbiting meteorological satellite

FENGYUN 1C DEB was lifted into orbit during the mission ‘Long March 4B | Feng Yun 1C’, on board a Long March 4B space rocket.

The launch took place on May 10, 1999, 1:33 a.m. from Launch Complex 7.

For more information about the launch, click the button.

Launch to space Long March 4B | Feng Yun 1C
Long March 4B | Feng Yun 1C

Agency: N/A

Status: Launch Successful

Launch date: May 10, 1999, 1:33 a.m. UTC

Rocket: Long March 4B

Launch pad: Launch Complex 7

Location: Taiyuan Satellite Launch Center, People's Republic of China

...

Latest news about this satellite

There are no fresh news available about this satellite. Check back as we update our databases every day.


Newsletter sign-up

Weekly statistics, charts and insights to help you stay on top of the space industry.